Regional Weather Roundup
Issued by NWS

Home | Current Version | Previous Version | Text Only | Print | Product List | Glossary Off
Versions: 1 2 3 4 5 6 7 8 9 10 11 12 13 14 15 16 17 18 19 20 21 22 23 24 25 26 27 28 29 30 31 32 33 34 35 36 37 38 39 40 41 42 43 44 45 46 47 48 49 50

000
ASUS43 KLOT 221003
RWRIL

ILLINOIS REGIONAL WEATHER ROUNDUP
NATIONAL WEATHER SERVICE CHICAGO/ROMEOVILLE IL
400 AM CST THU FEB 22 2018

NOTE: "FAIR" INDICATES FEW OR NO CLOUDS BELOW 12,000 FEET WITH NO
SIGNIFICANT WEATHER AND/OR OBSTRUCTIONS TO VISIBILITY.

* THESE STATIONS ARE NOT UNDER NWS QUALITY CONTROL. THEY ALSO MAY NOT
  REPORT WEATHER SUCH AS PRECIPITATION OR FOG.

ILZ001-002-007-009-015-016-024-221100-
NORTHWEST ILLINOIS

CITY           SKY/WX    TMP DP  RH WIND       PRES   REMARKS
MOLINE         CLOUDY    28  19  69 NE10      30.50F WCI  19
STERLING*      FAIR      27  21  78 MISG      30.52F
SAVANNA*       FAIR      26  17  69 NE10      30.53F WCI  16
$$

ILZ003-004-008-010-011-017-018-221100-
NORTH CENTRAL ILLINOIS

CITY           SKY/WX    TMP DP  RH WIND       PRES   REMARKS
ROCKFORD       CLOUDY    27  19  72 NE10      30.55F WCI  17
FREEPORT*      FAIR      25  18  74 NE10      30.56S WCI  15
ROCHELLE*      FAIR      27  22  80 NE15      30.52F WCI  16
DE KALB*       FAIR      28  24  85 NE14      30.51F WCI  16
PERU*          CLOUDY    28  23  81 NE13      30.51S WCI  17
$$

ILZ005-006-012>014-019>023-221100-
NORTHEAST ILLINOIS

CITY           SKY/WX    TMP DP  RH WIND       PRES   REMARKS
CHICAGO-OHARE  CLOUDY    31  25  78 NE10      30.53F WCI  22
CHICAGO-MIDWAY CLOUDY    32  26  78 NE14      30.53S WCI  22
AURORA         FAIR      30  23  75 NE13      30.51F WCI  20
LANSING*       MOCLDY    32  29  90 NE8       30.51F WCI  24
JOLIET*        MOCLDY    32  28  84 NE10      30.51R WCI  24
WAUKEGAN       FAIR      30  22  72 NE8G17    30.56R WCI  22
DUPAGE AIRPORT FAIR      29  24  82 NE10      30.51F WCI  20
KANKAKEE*      CLOUDY    32  28  86 NE16      30.48F WCI  21
WHEELING       FAIR      32  26  78 NE10      30.56S WCI  24
MORRIS*        FAIR      31  27  83 NE6       30.50S WCI  25
ROMEOVILLE*    MOCLDY    31  27  85 NE14      30.51R WCI  21
NORTHERLY ISL    N/A     32  27  82 NE14        N/A  WCI  22
$$

LMZ740>746-221100-
SOUTHERN LAKE MICHIGAN

STATION/POSITION SKY/WX   TEMP    WIND        PRES    VSBY  WAVE
                          AIR SEA DIR/SP/G                  HT/PER
                          (F)     (DEG/KT/KT) (MB)    (MI)  (FT/S)
HARRISON CRIB              33      40/ 17/ 18   N/A
BURNHAM HARBOR             32      30/ 14/ 17   N/A
CALUMET HARBOR             31      40/ 13/ 17 1032.8
BURNS HARBOR               31      50/ 17/ 19 1033.9F
MICHIGAN CITY              31      30/ 18/ 20   N/A
$$

ILZ025>027-034>036-040-047-049-050-058-095>099-221100-
WEST-CENTRAL ILLINOIS

CITY           SKY/WX    TMP DP  RH WIND       PRES   REMARKS
QUINCY         FRZ RAIN  29  26  89 NE9       30.43S FOG     WCI  20
GALESBURG*     CLOUDY    29  24  81 NE15      30.47F WCI  17
MACOMB*        CLOUDY    29  26  89 NE15      30.48F WCI  18
JACKSONVILLE*  MIX PCPN  31  29  93 NE8       30.43S WCI  23
PITTSFIELD*    RAIN      31  29  95 NE7       30.44R WCI  24
$$

ILZ028>032-037-038-041>044-048-051>054-059>061-221100-
CENTRAL ILLINOIS

CITY           SKY/WX    TMP DP  RH WIND       PRES   REMARKS
PONTIAC        CLOUDY    32  32  99 NE13      30.47S WCI  22
BLOOMINGTON    CLOUDY    30  29  96 NE18      30.44S WCI  18
DECATUR        MIX PCPN  32  31  96 NE16      30.41S FOG     WCI  21
PEORIA         CLOUDY    30  25  81 NE9G22    30.46F WCI  22
LACON*         CLOUDY    29  25  85 NE8       30.48S WCI  21
LINCOLN*       LGT RAIN  32  32  99 NE12      30.44S WCI  23
SPRINGFIELD    LGT RAIN  33  31  92 NE13G21   30.42F FOG     WCI  24
TAYLORVILLE    DRIZZLE   32  32  99 NE10      30.41F WCI  24
$$

ILZ033-039-045-046-055>057-062-063-221100-
EAST-CENTRAL ILLINOIS

CITY           SKY/WX    TMP DP  RH WIND       PRES   REMARKS
CHAMPAIGN      CLOUDY    33  32  96 N15       30.43R WCI  23
DANVILLE*      CLOUDY    35  33  94 NE14      30.38S WCI  26
RANTOUL*       CLOUDY    34  33  96 N14G21    30.44R WCI  25
MATTOON        CLOUDY    35  34  96 N15       30.38R WCI  25
PARIS*         CLOUDY    37  36  98 NE9       30.37S WCI  30
$$

ILZ079-100>102-221100-
SOUTHWEST ILLINOIS

CITY           SKY/WX    TMP DP  RH WIND       PRES   REMARKS
ALTON          MIX PCPN  32  32 100 NE8       30.39F WCI  25
BELLEVILLE     CLOUDY    34  32  93 N10       30.36F WCI  26
CAHOKIA*       LGT RAIN  33  32  96 NE12        N/A  FOG     WCI  24
SPARTA*        LGT RAIN  34  34 100 N10G18    30.38R WCI  26
$$

ILZ064>066-069>071-074>076-080>082-084>086-088>090-092>094-221100-
SOUTH-CENTRAL ILLINOIS

CITY           SKY/WX    TMP DP  RH WIND       PRES   REMARKS
CARBONDALE     RAIN      38  38 100 N16G22    30.32R FOG     WCI  29
CAIRO*         CLOUDY    40  39  98 W13       30.29R
EFFINGHAM*     DRIZZLE   37  37 100 NW9       30.37R WCI  31
MARION         CLOUDY    39  39  98 NW8G16    30.33R WCI  34
MT. VERNON     LGT RAIN  39  38  96 VRB6      30.33R WCI  35
CENTRALIA*     HVY RAIN  37  37 100 N12       30.35R WCI  30
SALEM*         DRIZZLE   38  37  92 N12       30.33F WCI  31
METROPOLIS*    CLOUDY    42  40  95 E6        30.23S
$$

ILZ067-068-072-073-078-083-087-091-221100-
SOUTHEAST ILLINOIS

CITY           SKY/WX    TMP DP  RH WIND       PRES   REMARKS
LAWRENCEVILLE  CLOUDY    42  40  92 E17       30.26F
FLORA*         CLOUDY    41  39  94 NW9       30.35R
FAIRFIELD*     CLOUDY    40  40 100 CALM      30.31R
HARRISBURG*    CLOUDY    40  40  99 W17       30.32R
ROBINSON*      CLOUDY    39  39  99 NE8       30.32S WCI  34
CARMI*         LGT RAIN  41  40  97 E14G30    30.20F
$$

ABBREVIATIONS USED IN REMARKS
   TC - TEMPERATURE IN CELSIUS
  WCI - WIND CHILL INDEX
   HX - HEAT INDEX
  VSB - VISIBILITY
$$





USA.gov is the U.S. government's official web portal to all federal, state and local government web resources and services.